Weather History for Lamezia Terme, Italy

Change the Weather History Date:

Saturday, November 10, 2012

  Actual Average Record
Temperature  
Mean Temperature 58 °F -  
Max Temperature 68 °F 61 °F 75 °F (2010)
Min Temperature 48 °F 47 °F 46 °F (2004)
Degree Days  
Heating Degree Days 7    
Growing Degree Days 8 (Base 50)    
Moisture  
Dew Point 51 °F    
Average Humidity 71    
Maximum Humidity 87    
Minimum Humidity 59    
Precipitation  
Precipitation 0.00 in - - ()
Sea Level Pressure  
Sea Level Pressure 30.06 in    
Wind  
Wind Speed 12 mph ()    
Max Wind Speed 23 mph    
Max Gust Speed -    
Visibility 6.2 miles    
Events      
Averages and records for this station are not official NWS values.
T = Trace of Precipitation, MM = Missing Value Source: Averaged Metar Reports

Daily Weather History Graph

Daily Weather History Graph

Search for Another Location

Airport:

Trip Planner

Search our weather history database for the weather conditions in past years. The results will help you decide how hot, cold, wet, or windy it might be!

Date:

Astronomy

Nov. 10, 2012 Rise Set
Actual Time 6:32 AM CET 4:45 PM CET
Civil Twilight 6:04 AM CET 5:13 PM CET
Nautical Twilight 5:32 AM CET 5:45 PM CET
Astronomical Twilight 5:00 AM CET 6:16 PM CET
Moon 2:19 AM CET (11/10) 2:20 PM CET (11/10)
Length of Visible Light 11h 09m
Length of Day
10h 12m
Waning Crescent, 16% of the Moon is Illuminated
Nov 10
Waning Crescent
Nov 13
New
Nov 20
First Quarter
Nov 28
Full
Dec 6
Last Quarter

Hourly Weather History & Observations

Time (CET) Temp. Dew Point Humidity Pressure Visibility Wind Dir Wind Speed Gust Speed Precip Events Conditions
12:50 AM 48.2 °F 44.6 °F 87% 30.09 in 6.2 mi East 5.8 mph - N/A   Partly Cloudy
1:50 AM 48.2 °F 42.8 °F 82% 30.09 in - East 4.6 mph - N/A   Clear
2:50 AM 48.2 °F 44.6 °F 87% 30.09 in - ENE 5.8 mph - N/A   Clear
3:50 AM 48.2 °F 42.8 °F 82% 30.06 in - East 8.1 mph - N/A   Clear
4:50 AM 55.4 °F 46.4 °F 72% 30.06 in - NE 15.0 mph - N/A   Clear
5:50 AM 55.4 °F 46.4 °F 72% 30.06 in - NE 15.0 mph - N/A   Clear
6:50 AM 55.4 °F 46.4 °F 72% 30.06 in - NE 15.0 mph - N/A   Clear
7:50 AM 59.0 °F 48.2 °F 67% 30.09 in - NE 13.8 mph - N/A   Clear
8:50 AM 60.8 °F 50.0 °F 68% 30.09 in - NE 17.3 mph - N/A   Clear
9:50 AM 64.4 °F 50.0 °F 59% 30.09 in - ENE 20.7 mph - N/A   Clear
10:50 AM 64.4 °F 51.8 °F 64% 30.09 in - ENE 18.4 mph - N/A   Clear
11:50 AM 66.2 °F 51.8 °F 60% 30.09 in - ENE 18.4 mph - N/A   Clear
12:50 PM 68.0 °F 53.6 °F 60% 30.06 in - East 18.4 mph - N/A   Clear
1:50 PM 66.2 °F 53.6 °F 64% 30.04 in - East 23.0 mph - N/A   Clear
2:50 PM 66.2 °F 53.6 °F 64% 30.04 in 6.2 mi East 23.0 mph - N/A   Partly Cloudy
3:50 PM 64.4 °F 53.6 °F 68% 30.04 in 6.2 mi ENE 21.9 mph - N/A   Partly Cloudy
4:50 PM 62.6 °F 53.6 °F 72% 30.04 in 6.2 mi ENE 21.9 mph - N/A   Partly Cloudy
5:50 PM 62.6 °F 53.6 °F 72% 30.04 in 6.2 mi NE 18.4 mph - N/A   Partly Cloudy
6:50 PM 62.6 °F 53.6 °F 72% 30.04 in 6.2 mi NE 18.4 mph - N/A   Partly Cloudy
7:50 PM 62.6 °F 53.6 °F 72% 30.04 in 6.2 mi ENE 20.7 mph - N/A   Partly Cloudy
8:50 PM 62.6 °F 53.6 °F 72% 30.06 in 6.2 mi ENE 17.3 mph - N/A   Partly Cloudy
9:50 PM 62.6 °F 53.6 °F 72% 30.06 in 6.2 mi NE 16.1 mph - N/A   Partly Cloudy
10:50 PM 62.6 °F 55.4 °F 77% 30.06 in 6.2 mi ENE 17.3 mph - N/A   Partly Cloudy
11:50 PM 64.4 °F 55.4 °F 73% 30.04 in 6.2 mi ENE 23.0 mph - N/A   Partly Cloudy